Location: Robert Ferguson Observatory
(38.4385°N, 122.5078°W)
Time: 23:44:49
(UTC-07:00)

Daily predictions for brighter satellites

Satellite Brightness Start Highest point End
(mag) Time Altitude Azimuth Time Altitude Azimuth Time Altitude Azimuth
Cosmos 2263 Rocket 4.3 20:44:26 10° SW 20:49:32 34° WNW 20:54:39 10° N
CENTAUR R/B 3.2 20:41:43 10° NNW 20:49:40 88° WSW 20:58:01 10° SSE
Cosmos 2181 Rocket 4.4 20:43:19 10° N 20:49:45 73° W 20:56:03 10° S
Cosmos 909 Rocket 4.4 20:44:43 10° SSW 20:51:10 89° NW 20:58:54 10° NNE
Cosmos 2056 Rocket 3.5 20:52:08 10° SSW 20:57:18 83° ESE 21:02:27 10° NNE
Cosmos 1371 Rocket 4.5 20:54:30 10° SSW 20:59:47 68° WNW 21:05:04 10° NNE
SPOT 5 4.4 20:55:44 10° ESE 20:59:53 24° ENE 21:04:04 10° NNE
Cosmos 2074 Rocket 4.0 20:57:37 10° S 21:03:54 82° E 21:10:12 10° N
Meteor 2-3 Rocket 4.5 20:59:01 10° SSW 21:04:32 58° WNW 21:10:03 10° N
Cosmos 1674 Rocket 3.9 21:00:38 10° N 21:04:58 50° E 21:09:15 10° SSE
SL-27 R/B 2.6 21:02:13 10° N 21:05:50 61° ENE 21:09:22 10° SSE
Resurs 01 Rocket 4.3 21:05:14 10° SW 21:08:21 19° W 21:11:30 10° NW
Cosmos 1606 3.7 21:06:09 10° NNE 21:09:40 30° ENE 21:12:55 11° SE
PSLV R/B 3.9 21:07:13 10° W 21:10:31 46° SSW 21:13:25 13° SE
Cosmos 1610 Rocket 4.5 21:07:30 10° S 21:13:35 67° E 21:19:45 10° NNE
Cosmos 1892 3.5 21:10:28 10° SSW 21:14:14 56° W 21:18:02 10° N
Sich 1 Rocket 3.8 21:11:04 10° S 21:15:34 57° E 21:20:04 10° NNE
Cosmos 1356 Rocket 4.3 21:12:08 10° SSW 21:16:15 54° W 21:20:29 10° N
CZ-4 DEB 3.0 21:17:06 10° S 21:20:14 69° WSW 21:23:24 10° NNW
Meteor 1-27 Rocket 3.9 21:15:34 10° N 21:20:59 50° ENE 21:26:04 11° SSE
GPS 2-05 Rocket1 3.4 21:17:27 10° WSW 21:20:59 42° SSE 21:23:47 14° E
ERBS 3.7 21:18:13 10° WNW 21:21:23 33° SW 21:24:31 10° SSE
Cosmos 1782 2.8 21:17:40 10° N 21:21:43 79° E 21:25:45 10° S
Coronas F rocket 3.5 21:19:24 10° SW 21:21:44 28° W 21:24:05 10° NNW
Nadezhda 3 Rocket 4.3 21:15:53 10° N 21:22:02 49° E 21:27:59 11° SSE
BREEZE-M DEB (TANK) 4.3 21:19:54 10° W 21:22:10 31° NNW 21:26:25 10° NE
COSMOS 2487 3.8 21:21:23 10° N 21:24:26 25° ENE 21:26:19 17° ESE
H-2A R/B 4.3 21:21:26 10° SSW 21:24:47 33° W 21:28:12 10° NNW
Envisat 3.1 21:26:18 11° SSE 21:31:03 63° ENE 21:36:06 10° N
Cosmos 1939 Rocket 2.7 21:29:41 12° SSE 21:33:09 76° ENE 21:37:05 10° N
APEX 4.4 21:32:03 18° SE 21:33:54 26° E 21:37:45 10° NE
SEDSat Delta rocket 4.4 21:31:07 10° SSW 21:33:55 17° SSE 21:34:24 17° SSE
Cosmos 1975 Rocket 3.9 21:31:27 10° NNE 21:35:23 32° ENE 21:37:34 20° SE
TIMED 4.5 21:31:30 10° SSW 21:35:51 90° ESE 21:40:15 10° NNE
Cosmos 1420 Rocket 4.3 21:36:51 10° S 21:41:48 44° ESE 21:46:46 10° NNE
Cosmos 2084 3.2 21:38:26 10° SW 21:42:18 80° NW 21:46:09 10° NNE
Atlas Centaur 2 2.6 21:40:01 10° WSW 21:42:40 19° S 21:43:28 18° S
Cosmos 1908 Rocket 3.5 21:39:08 10° S 21:43:32 88° WNW 21:47:59 10° N
Cosmos 2341 Rocket 4.0 21:39:11 10° S 21:45:25 67° E 21:51:37 10° NNE
Cosmos 1378 Rocket 3.4 21:42:59 10° N 21:47:18 73° E 21:50:13 20° SSE
ERS-1 Rocket 3.5 21:43:19 10° S 21:48:17 58° W 21:53:16 10° NNW
ARGOS 4.0 21:46:45 21° ESE 21:49:29 33° ENE 21:54:14 10° N
Cosmos 407 Rocket 3.9 21:45:45 10° NNW 21:50:59 63° WSW 21:55:35 13° S
ATLAS 5 CENTAUR R/B 3.6 21:46:39 10° NW 21:52:14 37° WSW 21:58:05 10° S
deb Chang Zheng 4 3.8 21:48:01 10° N 21:52:25 73° WNW 21:56:51 10° SSW
YAOGAN 6 3.0 21:53:07 32° ESE 21:54:12 43° ENE 21:57:34 10° N
H-2A R/B 3.7 21:53:53 17° E 21:55:54 20° ENE 21:59:43 10° NNE
Cosmos 1408 2.5 21:52:45 13° S 21:56:01 84° W 21:59:41 10° N
Cosmos 1140 Rocket 3.7 21:51:33 10° N 21:56:36 53° ENE 21:59:10 27° SE
CZ-4 SHROUD 3.4 21:55:59 41° ESE 21:56:38 51° ENE 21:59:40 10° N
Cosmos 1242 Rocket 3.1 21:54:34 10° N 21:58:04 41° ENE 21:58:56 35° ESE
UNK 4.5 21:52:06 10° NNE 21:58:13 60° ESE 22:03:30 13° S
SL-8 Rocket 4.2 21:54:45 19° SSE 21:59:02 49° E 22:05:02 10° NNE
Cosmos 962 Rocket 4.4 21:53:33 10° S 21:59:42 85° E 22:05:57 10° N
USA 245 3.7 21:59:05 32° E 21:59:43 36° ENE 22:03:20 10° N
Cosmos 1452 Rocket 4.0 21:55:02 10° SSW 22:00:13 62° WNW 22:05:29 10° NNE
PSLV R/B 3.0 22:00:22 52° SE 22:00:52 66° ENE 22:03:48 10° N
Cosmos 1825 2.4 21:57:33 11° SSW 22:01:13 71° W 22:05:02 10° N
Timation 2 Rocket 4.2 21:55:24 10° NNW 22:01:15 53° ENE 22:04:20 27° SE
Cosmos 1184 Rocket 3.2 22:06:04 20° SSW 22:08:13 64° W 22:11:34 10° N
CZ-4B R/B 3.5 22:04:05 10° NNE 22:08:55 53° E 22:11:04 30° SSE
SPOT 1/Viking Rocket 3.7 22:08:41 31° SE 22:11:04 59° ENE 22:16:12 10° N
Cosmos 2151 Rocket 4.2 22:10:45 35° ESE 22:11:25 37° E 22:15:35 10° NNE
H-2A R/B 3.0 22:09:43 16° SSW 22:12:52 45° W 22:16:57 10° NNW
Cosmos 1833 Rocket 3.7 22:08:24 10° N 22:13:22 31° ENE 22:15:24 25° E
Cosmos 2278 Rocket 2.6 22:08:03 10° SSW 22:13:40 65° WNW 22:19:20 10° NNE
USA 234 3.8 22:08:51 10° ENE 22:14:39 33° SE 22:17:45 22° S
MetOp-A 4.2 22:15:24 25° S 22:18:35 78° WSW 22:23:57 10° NNW
Cosmos 1295 Rocket 4.5 22:13:37 14° S 22:19:09 87° E 22:25:27 10° N
ISS -1.4 22:18:36 10° W 22:21:32 31° NNW 22:24:30 10° NNE
Meteor 1-14 Rocket 4.1 22:23:46 27° S 22:26:57 75° E 22:32:33 10° NNE
Cosmos 1812 4.4 22:24:13 10° NNE 22:26:39 21° ENE 22:26:39 21° ENE
Terra 2.7 22:31:14 32° E 22:31:48 32° ENE 22:36:01 10° N
Cosmos 1850 Rocket 4.0 22:29:01 10° NNW 22:34:22 89° ENE 22:36:03 45° SSE
SL-08 RB Rocket 3.7 22:33:35 54° SE 22:34:32 73° ENE 22:39:10 10° N
Cosmos 2082 Rocket 2.4 22:29:30 10° NNW 22:35:08 59° ENE 22:36:43 43° ESE
Cosmos 1238 Rocket 4.3 22:32:23 10° NNW 22:35:21 29° W 22:37:03 20° SW
SPOT 5 4.1 22:34:18 20° SSW 22:37:36 42° W 22:42:41 10° NNW
Cosmos 2366 rocket 3.9 22:36:36 34° S 22:39:30 76° E 22:45:50 10° N
Okean 2 Rocket 4.3 22:40:02 15° SW 22:43:21 38° WNW 22:47:28 10° N
OAO 3 Rocket 4.0 22:42:41 10° WSW 22:46:04 37° SSW 22:46:04 37° SSW
Cosmos 2297 4.0 22:43:16 10° SSW 22:48:55 66° WNW 22:54:39 10° NNE
Lacrosse 5 4.1 22:56:43 13° ENE 22:56:43 13° ENE 22:57:15 10° ENE
Cosmos 1741 Rocket 4.3 22:49:37 10° NNW 22:54:45 61° WSW 22:55:59 47° SSW
CZ-4C R/B 3.5 22:55:37 68° NNE 22:55:37 68° NNE 22:59:18 10° N
NOAA 11 4.5 22:54:03 41° SSW 22:55:52 62° WSW 23:01:21 10° NNW
DMSP B5D2-2 4.1 22:50:59 10° NNE 22:56:09 59° E 22:56:18 59° ESE
Cosmos 1331 Rocket 3.9 23:02:17 64° E 23:02:17 64° E 23:07:12 10° NNE
USA 229 DEB 3.7 22:55:03 10° NNW 23:02:12 79° ENE 23:04:18 50° SE
USA 229 3.7 22:55:10 10° NNW 23:02:18 78° NE 23:04:24 50° SE
ASTEX 1 3.9 23:00:10 10° NNE 23:04:23 46° ENE 23:04:23 46° ENE
DELTA 2 DEB (DPAF) 4.1 23:07:33 75° W 23:07:33 75° W 23:12:00 10° NNW
Cosmos 1110 Rocket 3.8 23:08:24 75° S 23:08:51 86° ESE 23:14:06 10° NNE
CARTOSAT-1 3.7 23:12:58 70° NNW 23:12:58 70° NNW 23:16:49 10° NNW
Timation 1 Rocket 4.3 23:10:38 46° SSW 23:12:33 87° WNW 23:18:36 10° NNE
Cosmos 2369 Rocket 3.7 23:23:58 23° ENE 23:23:58 23° ENE 23:26:37 10° NE
Cosmos 1727 Rocket 4.3 23:17:57 10° NNW 23:24:00 61° W 23:25:30 48° SW
Cosmos 1536 Rocket 4.5 23:21:50 10° NNW 23:26:00 43° W 23:26:00 43° W
H-2A R/B 2.6 23:34:32 50° WSW 23:34:55 51° W 23:40:06 10° NNW
Cosmos 1486 Rocket 4.2 23:30:52 10° NNW 23:35:47 66° NE 23:35:47 66° NE
NOSS 3-1 (C) 4.2 23:43:11 10° NNW 23:50:47 67° NE 23:52:32 54° ESE
